Weather in Volkovitsy

Russia / Saint-Petersburg and Leningrad Oblast     59°38′52″N   29°49′11″E
temp.,
°C
wind,
m/s
gust,
m/s
humid.,
%
clouds,
%
prec.,
mm/h
press.,
hPa
HPBL,
m
19 september, sun
sun1900:00+4e31083100 0.0 1027351
03:00+3ene3984100 0.0 1027292
06:00+2ene4985100 0.0 1027313
09:00+4e51173100 0.0 1027468
12:00+8e6956100 0.0 1027948
15:00+9e6848100 0.0 10261203
18:00+8ene5958100 0.0 10261055
21:00+5ene4127232 0.0 1027482
20 september, mon
mon2000:00+5ene51275100 0.0 1027522
03:00+5ene51274100 0.0 1027554
06:00+4ene51277100 0.0 1027569
09:00+4ene61270100 0.0 1027669
12:00+7ene61056100 0.0 1027883
15:00+8ene6950100 0.0 10261159
18:00+7ene51057100 0.0 10251075
21:00+5ene51163100 0.0 1026762
21 september, tue
tue2100:00+4ene41068100 0.0 1025554
03:00+3ene497490 0.0 1024405
06:00+3ene398299 0.0 1023335
09:00+5ene487299 0.0 1023530
12:00+8ene4654100 0.0 1022888
15:00+9ne565199 0.0 10211097
18:00+7ene4668100 0.0 1021935
21:00+6ene377984 0.0 1022750
22 september, wed
wed2200:00+5ene258783 0.0 1022333
03:00+5ne2686100 0.0 1022541
06:00+6ne2689100 0.0 1022419
09:00+7ne368798 0.0 1021528
12:00+9ne347596 0.0 1022772
15:00+10ne347182 0.1 1020781
18:00+10ne347079 0.0 1020789
21:00+6ene2483100 0.0 101991
23 september, thu
thu2300:00+7ne1179100 0.0 101734
03:00+7ese1180100 0.0 101514
06:00+6sse2281100 0.0 101459
09:00+7sse3574100 0.0 1012300
12:00+7sse4785100 0.0 1011513
15:00+8sse4774100 0.1 10091030
18:00+7sse5884100 0.0 1007833
21:00+6sse51085100 0.0 1005979